SCP
0 0 0 0 0 0 0 0 0 0 0 0 0 0 0 0 0 0 0 0 0 0 0 0 0 0 0 0 0 0 0 0 0 0 0 0 0 0 0 0 0 0 0 0
0 0 0 0 0 0 0 0 0 0 0 0 0 0 0 0 0 0 0 0 0 0 0 0 0 0 0 0 0 0 0 0 0 0 0 0 0 0 0 0 0 0 0 0
0 0 0 0 0 0 0 0 0 0 0 0 0 0 0 0 0 0 0 0 0 0 0 0 0 0 0 0 0 0 0 0 0 0 0 0 0 0 0 0 0 0 0 0
0 0 0 0 0 0 0 0 0 0 0 0 0 0 0 0 0 0 0 0 0 0 0 0 0 0 0 0 0 0 0 0 0 0 0 0 0 0 0 0 0 0 0 0
0 0 0 0 0 0 0 0 0 0 0 0 0 0 0 0 0 0 0 0 0 0 0 0 0 0 0 0 0 0 0 0 0 0 0 0 0 0 0 0 0 0 0 0
0 0 0 0 0 0 0 0 0 0 0 0 0 0 0 0 0 0 0 0 0 0 0 0 0 0 0 0 0 0 0 0 0 0 0 0 0 0 0 0 0 0 0 0
0 0 0 0 0 0 0 0 0 0 0 0 0 0 0 0 0 0 0 0 0 0 0 0 0 0 0 0 0 0 0 0 0 0 0 0 0 0 0 0 0 0 0 0
0 0 0 0 0 0 0 0 0 0 0 0 0 0 0 0 0 0 0 0 0 0 0 0 0 0 0 0 0 0 0 0 0 0 0 0 0 0 0 0 0 0 0 0
0 0 0 0 0 0 0 0 0 0 0 0 0 0 0 0 0 0 0 0 0 0 0 0 0 0 0 0 0 0 0 0 0 0 0 0 0 0 0 0 0 0 0 0
0 0 0 0 0 0 0 0 0 0 0 0 0 0 0 0 0 0 0 0 0 0 0 0 0 0 0 0 0 0 0 0 0 0 0 0 0 0 0 0 0 0 0 0
0 0 0 0 0 0 0 0 0 0 0 0 0 0 0 0 0 0 0 0 0 0 0 0 0 0 0 0 0 0 0 0 0 0 0 0 0 0 0 0 0 0 0 0
0 0 0 0 0 0 0 0 0 0 0 0 0 0 0 0 0 0 0 0 0 0 0 0 0 0 0 0 0 0 0 0 0 0 0 0 0 0 0 0 0 0 0 0
0 0 0 0 0 0 0 0 0 0 0 0 0 0 0 0 0 0 0 0 0 0 0 0 0 0 0 0 0 0 0 0 0 0 0 0 0 0 0 0 0 0 0 0
0 0 0 0 0 0 0 0 0 0 0 0 0 0 0 0 0 0 0 0 0 0 0 0 0 0 0 0 0 0 0 0 0 0 0 0 0 0 0 0 0 0 0 0
0 0 0 0 0 0 0 0 0 0 0 0 0 0 0 0 0 0 0 0 0 0 0 0 0 0 0 0 0 0 0 0 0 0 0 0 0 0 0 0 0 0 0 0
0 0 0 0 0 0 0 0 0 0 0 0 0 0 0 0 0 0 0 0 0 0 0 0 0 0 0 0 0 0 0 0 0 0 0 0 0 0 0 0 0 0 0 0
0 0 0 0 0 0 0 0 0 0 0 0 0 0 0 0 0 0 0 0 0 0 0 0 0 0 0 0 0 0 0 0 0 0 0 0 0 0 0 0 0 0 0 0
0 0 0 0 0 0 0 0 0 0 0 0 0 0 0 0 0 0 0 0 0 0 0 0 0 0 0 0 0 0 0 0 0 0 0 0 0 0 0 0 0 0 0 0
0 0 0 0 0 0 0 0 0 0 0 0 0 0 0 0 0 0 0 0 0 0 0 0 0 0 0 0 0 0 0 0 0 0 0 0 0 0 0 0 0 0 0 0
0 0 0 0 0 0 0 0 0 0 0 0 0 0 0 0 0 0 0 0 0 0 0 0 0 0 0 0 0 0 0 0 0 0 0 0 0 0 0 0 0 0 0 0
0 0 0 0 0 0 0 0 0 0 0 0 0 0 0 0 0 0 0 0 0 0 0 0 0 0 0 0 0 0 0 0 0 0 0 0 0 0 0 0 0 0 0 0
0 0 0 0 0 0 0 0 0 0 0 0 0 0 0 0 0 0 0 0 0 0 0 0 0 0 0 0 0 0 0 0 0 0 0 0 0 0 0 0 0 0 0 0
0 0 0 0 0 0 0 0 0 0 0 0 0 0 0 0 0 0 0 0 0 0 0 0 0 0 0 0 0 0 0 0 0 0 0 0 0 0 0 0 0 0 0 0
0 0 0 0 0 0 0 0 0 0 0 0 0 0 0 0 0 0 0 0 0 0 0 0 0 0 0 0 0 0 0 0 0 0 0 0 0 0 0 0 0 0 0 0
0 0 0 0 0 0 0 0 0 0 0 0 0 0 0 0 0 0 0 0 0 0 0 0 0 0 0 0 0 0 0 0 0 0 0 0 0 0 0 0 0 0 0 0
0 0 0 0 0 0 0 0 0 0 0 0 0 0 0 0 0 0 0 0 0 0 0 0 0 0 0 0 0 0 0 0 0 0 0 0 0 0 0 0 0 0 0 0
0 0 0 0 0 0 0 0 0 0 0 0 0 0 0 0 0 0 0 0 0 0 0 0 0 0 0 0 0 0 0 0 0 0 0 0 0 0 0 0 0 0 0 0
Wind_Speed
5 5 4 6 7 9 12 11 10 11 14 21 20 17 12 9 10 11 12 12 10 7 3 2 4 4 5 6 7 7 8 9 9 10 11 12 12 12 13 13 13 13 13 12
4 4 6 7 11 12 13 14 17 19 22 18 13 8 7 8 10 11 12 11 10 7 4 4 4 4 6 8 9 10 11 11 11 12 13 13 13 13 14 13 13 13 12 11
3 5 4 8 10 12 8 9 10 13 12 9 11 9 5 7 9 10 11 10 9 7 6 5 5 6 8 9 10 11 12 12 12 13 14 14 14 15 14 13 13 12 10 9
3 3 5 6 2 7 8 9 10 9 10 9 9 3 2 4 6 8 9 8 8 6 7 7 7 8 9 10 11 12 12 13 13 14 14 14 14 14 12 11 10 8 8 7
2 3 7 7 3 4 4 7 6 7 9 7 3 1 1 4 5 5 6 6 7 7 7 8 8 9 11 11 12 12 12 12 12 13 13 13 13 11 9 9 8 6 5 5
2 4 5 5 2 2 1 5 5 5 7 5 3 2 2 4 5 5 6 6 6 7 8 9 8 9 12 11 11 11 11 11 11 11 12 11 10 9 7 6 6 5 4 3
5 5 8 7 2 3 1 5 3 4 5 3 2 2 1 3 4 5 5 6 6 7 8 7 7 9 11 11 10 10 10 10 10 10 10 10 9 7 6 5 5 4 4 3
6 6 9 4 3 4 6 4 3 3 2 3 4 4 4 4 4 4 5 5 6 6 7 7 7 9 10 9 8 9 10 10 10 9 8 7 7 6 5 5 5 4 4 4
8 9 6 2 4 3 2 4 3 2 2 6 6 5 5 4 4 5 5 5 5 6 7 6 6 8 10 8 8 9 10 10 9 9 7 6 6 6 5 4 4 3 3 2
5 8 7 6 4 2 2 3 3 2 4 6 7 7 6 5 5 5 6 5 6 6 7 7 7 8 8 8 8 9 10 8 7 7 7 6 5 4 4 3 3 2 2 1
5 7 5 4 3 3 2 1 1 2 3 7 9 7 6 6 6 6 6 5 6 6 7 7 7 7 7 7 8 9 9 7 6 6 5 5 4 3 3 2 3 3 1 1
6 6 4 5 3 3 4 3 4 4 4 5 7 8 7 7 6 7 7 7 7 7 7 7 7 7 6 6 7 9 8 6 4 4 4 4 4 4 6 4 6 4 1 0
6 5 4 4 2 3 4 4 4 5 6 7 6 7 7 7 7 8 8 8 8 7 7 7 7 7 6 6 6 7 7 5 4 4 4 3 3 3 3 4 7 8 8 8
4 3 3 3 4 3 4 4 5 5 5 6 6 7 8 7 8 9 8 7 8 8 8 7 8 6 5 6 7 7 6 6 5 3 3 3 3 2 2 2 2 3 5 9
6 5 4 2 3 4 4 5 6 6 6 6 7 8 8 9 10 9 8 9 9 8 7 7 8 6 5 6 7 7 5 4 3 3 3 3 2 2 2 2 1 2 2 4
10 6 2 2 4 5 5 6 7 7 7 7 8 8 8 9 9 9 8 8 9 9 7 7 7 5 5 6 7 5 4 8 6 3 3 3 2 2 2 1 1 2 3 3
7 5 3 3 5 6 7 7 7 8 8 8 9 9 10 11 10 9 7 6 6 6 6 7 6 5 5 6 6 4 4 4 7 4 2 2 2 1 1 1 1 2 3 5
8 9 8 8 7 8 8 8 8 9 9 8 10 11 12 12 12 11 9 9 8 6 5 5 6 6 6 5 5 4 4 3 3 2 1 1 1 1 1 1 2 3 3 4
9 9 8 7 7 7 8 9 9 9 9 11 12 11 9 8 9 10 10 11 11 9 5 5 11 7 6 6 6 3 4 3 3 2 1 2 2 1 2 2 2 3 4 4
10 10 8 5 3 4 6 8 9 10 10 11 11 10 10 9 10 10 10 7 5 5 7 8 7 5 5 6 7 3 4 3 2 1 1 1 1 1 2 2 3 3 4 4
11 10 8 4 1 2 5 9 10 11 11 12 12 12 11 10 10 10 9 6 4 7 8 11 6 4 4 5 6 3 3 3 2 1 0 1 1 2 2 3 3 4 4 4
10 9 7 4 2 2 3 6 8 10 11 10 10 10 11 11 10 7 4 5 8 12 7 5 4 6 7 7 3 3 3 2 1 1 0 1 2 2 3 3 4 4 4 4
9 7 6 4 1 2 3 4 7 9 9 10 11 12 12 10 9 9 6 5 7 12 8 5 8 11 10 5 3 3 2 1 1 1 1 2 2 3 3 4 4 4 4 5
8 8 6 4 2 2 2 3 4 5 6 7 7 8 9 8 5 3 4 13 15 13 6 9 13 11 9 3 3 2 2 1 1 2 2 2 3 3 3 4 4 5 5 6
7 6 5 4 2 0 1 3 5 6 7 5 6 7 5 4 5 6 7 10 15 13 6 9 12 10 5 3 3 2 2 2 3 3 3 3 3 4 4 4 5 5 5 6
6 5 4 3 2 1 2 3 4 4 6 6 6 5 5 5 7 7 7 8 10 11 6 4 5 6 3 3 2 2 2 2 2 2 3 3 4 4 4 5 6 6 6 6
5 4 3 3 2 1 2 3 4 5 6 7 7 6 6 6 7 8 8 7 7 6 5 4 4 3 3 2 2 2 2 2 3 3 3 4 4 4 5 6 6 6 6 7
Wind_Direction
241 239 212 217 218 202 205 214 232 255 268 283 294 302 308 317 322 326 330 332 327 314 310 341 357 11 31 42 49 64 79 87 95 100 104 106 108 110 110 110 110 109 107 102
291 264 229 240 237 226 229 233 244 262 275 278 285 298 315 333 333 332 333 337 338 343 9 24 26 39 55 61 62 71 78 83 88 95 96 96 98 98 97 97 98 99 99 100
285 307 328 263 231 207 208 215 221 246 257 286 305 314 329 338 337 336 336 342 352 5 21 37 48 65 72 74 77 81 84 85 87 90 91 92 94 92 91 91 91 90 92 96
285 328 255 247 240 187 214 241 228 245 267 286 295 301 70 6 342 342 350 356 5 21 39 47 58 70 77 80 84 86 87 88 90 92 92 92 91 91 90 90 92 95 99 105
259 281 278 282 246 199 225 272 235 240 271 288 308 198 158 29 10 2 7 18 27 39 53 59 64 74 82 81 83 86 88 88 90 94 96 96 95 94 94 97 96 97 108 125
228 266 260 260 250 150 135 278 247 235 267 287 326 311 314 33 29 30 34 39 45 52 61 64 66 78 83 83 84 86 89 92 93 96 100 101 101 98 94 98 105 113 111 117
219 249 268 258 244 126 219 265 264 238 253 252 213 205 112 74 59 57 55 56 60 64 66 67 73 83 86 86 86 89 92 93 91 92 95 97 97 97 102 103 101 95 89 72
194 218 253 254 154 198 238 275 279 257 228 172 143 126 119 106 91 84 79 72 72 73 70 67 77 90 91 88 90 92 92 91 90 90 93 96 97 93 92 97 91 82 80 66
200 221 241 247 227 255 264 273 275 248 183 146 145 151 138 124 114 107 103 96 90 89 84 77 80 94 98 98 101 99 95 91 89 86 83 89 96 97 87 84 89 86 87 81
247 259 261 262 251 244 241 255 272 226 170 158 153 151 144 134 124 117 110 107 106 101 95 88 86 91 98 102 100 99 96 91 89 89 83 75 75 85 93 97 100 101 99 81
259 277 294 273 226 221 216 207 177 131 151 156 148 150 147 139 133 123 115 110 106 106 104 100 95 92 92 98 103 99 93 89 83 81 85 79 74 82 102 114 134 126 138 157
237 243 239 263 243 197 197 200 178 148 134 145 151 148 141 137 132 128 123 117 112 108 106 101 97 91 87 91 103 107 100 91 87 87 81 79 77 57 58 67 65 70 113 279
256 271 249 259 236 190 187 181 168 157 153 147 143 142 137 133 132 129 126 126 124 119 112 106 100 94 90 92 95 100 106 102 90 86 84 81 79 82 56 32 40 37 26 7
295 299 271 243 225 182 152 135 124 119 128 136 136 136 134 131 134 134 133 128 122 115 110 107 102 95 95 98 98 96 96 102 101 97 97 95 92 89 84 63 21 357 1 1
335 312 272 238 140 136 132 129 130 136 137 136 138 142 143 143 143 138 131 125 118 113 110 110 107 103 100 102 103 104 103 104 103 101 95 91 89 87 76 61 36 349 330 340
317 314 280 189 179 169 160 162 166 167 160 153 150 148 142 136 132 130 130 134 134 132 128 121 117 120 114 110 109 106 112 123 116 107 96 89 82 78 65 40 12 349 333 320
309 299 277 248 218 206 198 190 181 173 166 161 154 142 135 132 130 130 126 116 116 119 124 127 127 126 121 120 118 116 108 113 111 101 95 94 86 68 43 12 346 331 317 318
283 274 265 253 237 218 206 191 178 173 167 156 146 147 150 152 152 147 137 125 116 106 109 122 127 124 123 124 123 121 116 112 112 112 101 89 86 58 26 352 335 325 312 318
314 301 285 260 234 211 196 184 174 166 156 153 158 160 157 150 146 145 143 143 144 145 154 153 141 129 128 135 128 115 116 113 106 94 70 53 59 20 352 331 320 312 311 315
331 328 322 305 239 187 178 165 157 157 158 158 156 153 152 150 150 151 150 153 161 154 150 147 135 129 129 134 126 114 117 119 117 104 76 42 9 336 326 322 319 312 310 310
337 337 340 346 0 145 155 154 156 160 161 163 165 165 160 155 155 155 155 152 155 146 150 149 141 139 137 135 124 117 119 121 122 117 61 343 323 315 314 315 314 312 309 308
338 339 345 360 44 90 127 146 154 158 160 163 159 153 154 157 159 156 152 155 157 158 148 144 146 155 150 134 120 126 129 133 139 153 272 302 302 301 299 298 294 295 295 295
338 340 346 354 27 104 119 140 155 161 165 166 166 167 169 167 167 164 161 156 156 159 149 157 166 158 144 129 131 136 143 156 183 231 265 276 278 278 281 285 284 286 288 290
339 342 342 346 22 110 140 147 146 147 150 153 161 164 160 155 152 146 140 159 165 157 156 168 163 155 144 134 139 148 166 196 235 262 270 272 273 274 275 279 282 283 282 285
330 331 338 344 344 252 160 137 130 136 141 143 146 148 149 148 151 152 151 158 162 153 155 166 161 152 141 142 155 171 195 227 237 246 252 265 270 273 272 272 273 278 281 280
324 324 320 309 289 237 177 160 159 158 154 152 151 149 139 130 136 144 147 149 152 153 147 134 139 144 143 155 171 194 222 263 298 295 271 271 270 271 271 273 277 275 276 277
316 314 312 313 305 243 199 182 174 174 171 166 160 157 152 148 149 149 146 144 143 144 141 139 139 143 154 169 192 217 239 255 264 269 269 266 265 265 269 273 274 276 277 278